Oakland, CA

6:31 PM PDT on October 22, 2017 (GMT -0700)
Metro Oakland International

Weather History for KOAK - January, 2014

Change the Weather History Date:

Saturday, January 25, 2014

  Actual Average Record
Temperature  
Mean Temperature 56 °F 50 °F  
Max Temperature 70 °F 58 °F 70 °F (2011)
Min Temperature 41 °F 42 °F 29 °F (1950)
Degree Days  
Heating Degree Days 9 15  
Month to date heating degree days 330 399  
Since 1 July heating degree days 1453 1571  
Cooling Degree Days 0 0  
Month to date cooling degree days 0 0  
Year to date cooling degree days 0 0  
Growing Degree Days 6 (Base 50)    
Moisture  
Dew Point 39 °F    
Average Humidity 55    
Maximum Humidity 82    
Minimum Humidity 28    
Precipitation  
Precipitation 0.00 in 0.06 in 0.85 in (1961)
Month to date precipitation 0.01 3.48  
Year to date precipitation 0.01 3.48  
Since 1 July precipitation 2.08  
Sea Level Pressure  
Sea Level Pressure 30.20 in    
Wind  
Wind Speed 3 mph (SSW)    
Max Wind Speed 8 mph    
Max Gust Speed 9 mph    
Visibility 9 miles    
Events      
T = Trace of Precipitation, MM = Missing Value Source: NWS Daily Summary

Daily Weather History Graph

Daily Weather History Graph

Search for Another Location

Airport or City:

Trip Planner

Search our weather history database for the weather conditions in past years. The results will help you decide how hot, cold, wet, or windy it might be!

Date:

Astronomy

Jan. 25, 2014 Rise Set
Actual Time 7:17 AM PST 5:24 PM PST
Civil Twilight 6:49 AM PST 5:53 PM PST
Nautical Twilight 6:18 AM PST 6:24 PM PST
Astronomical Twilight 5:47 AM PST 6:55 PM PST
Moon 1:56 AM PST (1/25) 12:29 PM PST (1/25)
Length of Visible Light 11h 03m
Length of Day
10h 07m
Waning Crescent, 33% of the Moon is Illuminated
Jan 25
Waning Crescent
Jan 30
New
Feb 6
First Quarter
Feb 14
Full
Feb 22
Last Quarter

Hourly Weather History & Observations

Time (PST) Temp. Windchill Dew Point Humidity Pressure Visibility Wind Dir Wind Speed Gust Speed Precip Events Conditions
12:53 AM 45.0 °F - 37.9 °F 76% 30.28 in 9.0 mi Calm Calm - N/A   Clear
1:53 AM 44.1 °F 42.5 °F 37.9 °F 79% 30.27 in 8.0 mi SSE 3.5 mph - N/A   Partly Cloudy
2:53 AM 46.0 °F - 37.9 °F 73% 30.26 in 9.0 mi Calm Calm - N/A   Scattered Clouds
3:53 AM 46.9 °F - 37.9 °F 71% 30.26 in 10.0 mi Calm Calm - N/A   Scattered Clouds
4:53 AM 45.0 °F - 37.0 °F 74% 30.24 in 10.0 mi Calm Calm - N/A   Partly Cloudy
5:53 AM 43.0 °F - 37.0 °F 80% 30.24 in 10.0 mi Calm Calm - N/A   Scattered Clouds
6:53 AM 46.0 °F 43.9 °F 37.9 °F 73% 30.24 in 10.0 mi SSE 4.6 mph - N/A   Scattered Clouds
7:53 AM 46.0 °F 44.8 °F 39.0 °F 76% 30.25 in 7.0 mi ESE 3.5 mph - N/A   Scattered Clouds
8:53 AM 52.0 °F - 39.9 °F 63% 30.25 in 6.0 mi SSE 4.6 mph - N/A   Haze
9:53 AM 54.0 °F - 44.1 °F 69% 30.25 in 6.0 mi South 3.5 mph - N/A   Haze
10:53 AM 55.9 °F - 45.0 °F 67% 30.25 in 6.0 mi SW 3.5 mph - N/A   Haze
11:53 AM 62.1 °F - 42.1 °F 48% 30.23 in 8.0 mi Calm Calm - N/A   Scattered Clouds
11:54 AM 62.6 °F - 42.8 °F 48% 30.23 in 8.0 mi Calm Calm - N/A   Scattered Clouds
12:53 PM 64.9 °F - 32.0 °F 29% 30.19 in 10.0 mi West 5.8 mph - N/A   Scattered Clouds
1:53 PM 66.0 °F - 36.0 °F 33% 30.16 in 10.0 mi West 6.9 mph - N/A   Scattered Clouds
2:53 PM 64.9 °F - 35.1 °F 33% 30.16 in 10.0 mi WNW 6.9 mph - N/A   Scattered Clouds
3:53 PM 70.0 °F - 36.0 °F 29% 30.14 in 10.0 mi NW 5.8 mph - N/A   Scattered Clouds
4:53 PM 64.9 °F - 41.0 °F 42% 30.13 in 10.0 mi Calm Calm - N/A   Partly Cloudy
5:53 PM 63.0 °F - 36.0 °F 37% 30.13 in 10.0 mi Calm Calm - N/A   Mostly Cloudy
6:53 PM 55.9 °F - 44.1 °F 64% 30.14 in 10.0 mi Calm Calm - N/A   Scattered Clouds
7:53 PM 51.1 °F - 44.1 °F 77% 30.15 in 10.0 mi Calm Calm - N/A   Partly Cloudy
8:53 PM 50.0 °F - 39.9 °F 68% 30.14 in 10.0 mi NNE 4.6 mph - N/A   Partly Cloudy
9:53 PM 53.1 °F - 42.1 °F 66% 30.14 in 10.0 mi SSW 5.8 mph - N/A   Partly Cloudy
10:53 PM 48.0 °F - 37.9 °F 68% 30.14 in 10.0 mi Calm Calm - N/A   Partly Cloudy
11:53 PM 48.9 °F - 39.9 °F 71% 30.13 in 10.0 mi SE 3.5 mph - N/A   Clear